Erie, CO

1:11 AM MDT on October 17, 2017 (GMT -0600)
Erie Municipal Airport

Weather History for KEIK - March, 2014

Change the Weather History Date:

Tuesday, March 11, 2014

  Actual Average (KBJC) Record (KBJC)
Temperature  
Mean Temperature 36 °F -  
Max Temperature 48 °F 50 °F 71 °F (1997)
Min Temperature 22 °F 28 °F 10 °F (1998)
Degree Days  
Heating Degree Days 30    
Moisture  
Dew Point 23 °F    
Average Humidity 61    
Maximum Humidity 89    
Minimum Humidity 26    
Precipitation  
Precipitation 0.00 in - - ()
Sea Level Pressure  
Sea Level Pressure 29.98 in    
Wind  
Wind Speed 11 mph (North)    
Max Wind Speed 29 mph    
Max Gust Speed 38 mph    
Visibility 9 miles    
Events Snow    
Averages and records for this station are not official NWS values.
T = Trace of Precipitation, MM = Missing Value Source: NWS Daily Summary

Daily Weather History Graph

Daily Weather History Graph

Search for Another Location

Airport or City:

Trip Planner

Search our weather history database for the weather conditions in past years. The results will help you decide how hot, cold, wet, or windy it might be!

Date:

Astronomy

Mar. 11, 2014 Rise Set
Actual Time 7:17 AM MDT 7:02 PM MDT
Civil Twilight 6:51 AM MDT 7:29 PM MDT
Nautical Twilight 6:19 AM MDT 8:01 PM MDT
Astronomical Twilight 5:48 AM MDT 8:33 PM MDT
Moon 2:41 PM MDT (3/11) 4:13 AM MDT (3/11)
Length of Visible Light 12h 38m
Length of Day
11h 44m
Waxing Gibbous, 78% of the Moon is Illuminated
Mar 11
Waxing Gibbous
Mar 16
Full
Mar 23
Last Quarter
Mar 30
New
Apr 7
First Quarter

Hourly Weather History & Observations

Time (MDT) Temp. Windchill Dew Point Humidity Pressure Visibility Wind Dir Wind Speed Gust Speed Precip Events Conditions
12:16 AM - - - N/A% 29.64 in 10.0 mi West 13.8 mph 21.9 mph N/A   Clear
12:36 AM - - - N/A% 29.64 in 10.0 mi West 6.9 mph - N/A   Clear
12:56 AM - - - N/A% 29.65 in 10.0 mi West 10.4 mph 16.1 mph N/A   Clear
1:15 AM - - - N/A% 29.65 in 10.0 mi WNW 10.4 mph - N/A   Clear
1:36 AM - - - N/A% 29.65 in 10.0 mi NW 9.2 mph - N/A   Clear
1:56 AM - - - N/A% 29.65 in 10.0 mi NW 11.5 mph 18.4 mph N/A   Clear
2:16 AM - - - N/A% 29.65 in 10.0 mi WNW 8.1 mph - N/A   Clear
2:36 AM - - - N/A% 29.64 in 10.0 mi WNW 5.8 mph - N/A   Clear
2:56 AM 46.2 °F - 17.4 °F 32% 29.63 in 10.0 mi Calm Calm - N/A   Clear
3:16 AM 46.2 °F - 16.7 °F 31% 29.63 in 10.0 mi Calm Calm - N/A   Clear
3:36 AM 48.6 °F - 15.3 °F 26% 29.64 in 10.0 mi NW 13.8 mph 18.4 mph N/A   Clear
3:56 AM - - - N/A% 29.65 in 10.0 mi North 3.5 mph - N/A   Scattered Clouds
4:16 AM 40.1 °F - 25.0 °F 55% 29.66 in 10.0 mi Calm Calm - N/A   Clear
4:36 AM 37.2 °F - 25.5 °F 63% 29.65 in 10.0 mi Calm Calm - N/A   Clear
4:56 AM 37.2 °F 33.6 °F 25.5 °F 63% 29.65 in 10.0 mi SW 4.6 mph - N/A   Clear
5:16 AM 48.2 °F - 21.6 °F 35% 29.65 in 10.0 mi West 11.5 mph 20.7 mph N/A   Clear
5:36 AM 46.4 °F 41.1 °F 23.5 °F 41% 29.66 in 10.0 mi West 11.5 mph - N/A   Clear
5:56 AM 46.0 °F 39.9 °F 23.9 °F 42% 29.68 in 10.0 mi West 13.8 mph - N/A   Clear
6:16 AM 44.2 °F 38.0 °F 25.5 °F 48% 29.69 in 10.0 mi WNW 12.7 mph - N/A   Clear
6:36 AM - - - N/A% 29.73 in 10.0 mi NNE 9.2 mph - N/A   Clear
6:56 AM 41.2 °F - 25.9 °F 55% 29.73 in 10.0 mi Calm Calm - N/A   Clear
7:16 AM 39.6 °F - 26.4 °F 59% 29.73 in 10.0 mi Calm Calm - N/A   Scattered Clouds
7:36 AM 39.2 °F - 27.3 °F 62% 29.75 in 10.0 mi Calm Calm - N/A   Scattered Clouds
7:56 AM 44.1 °F - 26.4 °F 50% 29.76 in 10.0 mi Calm Calm - N/A   Mostly Cloudy
8:15 AM 43.5 °F 40.1 °F 25.0 °F 48% 29.76 in 10.0 mi WSW 5.8 mph - N/A   Overcast
8:36 AM 44.6 °F 39.7 °F 24.8 °F 46% 29.77 in 10.0 mi West 9.2 mph - N/A   Overcast
8:56 AM 45.1 °F 40.8 °F 24.1 °F 44% 29.79 in 10.0 mi West 8.1 mph - N/A   Overcast
9:16 AM 45.7 °F 43.4 °F 25.5 °F 45% 29.81 in 10.0 mi WNW 4.6 mph - N/A   Mostly Cloudy
9:36 AM 46.4 °F 41.9 °F 22.1 °F 38% 29.82 in 10.0 mi NNW 9.2 mph 17.3 mph N/A   Scattered Clouds
9:56 AM - - - N/A% 29.85 in 10.0 mi NE 19.6 mph 24.2 mph N/A   Scattered Clouds
10:16 AM - - - N/A% 29.88 in 10.0 mi NE 18.4 mph 25.3 mph N/A   Scattered Clouds
10:36 AM - - - N/A% 29.90 in 10.0 mi NNE 20.7 mph 27.6 mph N/A   Scattered Clouds
10:56 AM 41.0 °F 32.5 °F 27.7 °F 59% 29.92 in 10.0 mi NNE 17.3 mph 26.5 mph N/A   Mostly Cloudy
11:16 AM 40.1 °F 29.7 °F 27.3 °F 60% 29.95 in 10.0 mi NNE 24.2 mph 31.1 mph N/A   Overcast
11:36 AM 40.3 °F 29.5 °F 27.1 °F 59% 29.96 in 10.0 mi North 26.5 mph 32.2 mph N/A   Overcast
11:56 AM 39.7 °F 28.3 °F 26.2 °F 59% 29.98 in 10.0 mi NNE 28.8 mph 38.0 mph N/A   Overcast
12:16 PM 38.3 °F 27.3 °F 27.5 °F 65% 30.00 in 10.0 mi NNE 24.2 mph 33.4 mph N/A   Overcast
12:35 PM 33.8 °F 21.6 °F 30.0 °F 86% 30.04 in 1.0 mi NNE 23.0 mph 33.4 mph N/A Snow Light Snow
12:56 PM 33.1 °F 21.9 °F 29.3 °F 86% 30.06 in 1.2 mi NNE 18.4 mph 34.5 mph N/A Snow Light Snow
1:16 PM 33.3 °F 20.3 °F 28.6 °F 83% 30.09 in 2.5 mi North 25.3 mph 32.2 mph N/A Snow Light Snow
1:36 PM 33.6 °F 20.8 °F 28.2 °F 81% 30.10 in 4.0 mi North 25.3 mph 33.4 mph N/A Snow Light Snow
1:56 PM 34.5 °F 22.3 °F 27.7 °F 76% 30.12 in 10.0 mi North 24.2 mph 33.4 mph N/A   Overcast
2:16 PM 33.1 °F 20.6 °F 28.8 °F 84% 30.13 in 4.0 mi North 23.0 mph 31.1 mph N/A Snow Light Snow
2:36 PM 33.8 °F 22.2 °F 29.5 °F 84% 30.14 in 7.0 mi North 20.7 mph 29.9 mph N/A   Overcast
2:56 PM 33.1 °F 21.2 °F 30.2 °F 89% 30.15 in 3.0 mi North 20.7 mph 28.8 mph N/A Snow Light Snow
3:16 PM 34.5 °F 23.4 °F 29.7 °F 82% 30.16 in 10.0 mi NNE 19.6 mph 29.9 mph N/A   Mostly Cloudy
3:36 PM 34.5 °F 23.1 °F 28.2 °F 78% 30.17 in 10.0 mi North 20.7 mph 29.9 mph N/A   Overcast
3:56 PM 34.7 °F 24.3 °F 29.3 °F 81% 30.19 in 10.0 mi NNE 17.3 mph 32.2 mph N/A   Overcast
4:16 PM 34.7 °F 22.2 °F 27.0 °F 73% 30.20 in 10.0 mi NNE 25.3 mph 33.4 mph N/A   Overcast
4:36 PM 35.2 °F 22.5 °F 25.2 °F 67% 30.20 in 10.0 mi North 27.6 mph 34.5 mph N/A   Overcast
4:56 PM 35.6 °F 23.2 °F 23.5 °F 62% 30.22 in 10.0 mi North 26.5 mph 34.5 mph N/A   Scattered Clouds
5:16 PM 35.8 °F 23.7 °F 21.7 °F 57% 30.22 in 10.0 mi North 25.3 mph 33.4 mph N/A   Scattered Clouds
5:36 PM 34.7 °F 22.8 °F 22.1 °F 60% 30.24 in 10.0 mi North 23.0 mph 29.9 mph N/A   Scattered Clouds
5:56 PM 35.4 °F 24.6 °F 21.6 °F 57% 30.25 in 10.0 mi North 19.6 mph 26.5 mph N/A   Scattered Clouds
6:16 PM 34.2 °F 23.6 °F 19.6 °F 55% 30.26 in 10.0 mi NNE 17.3 mph 27.6 mph N/A   Clear
6:36 PM 33.3 °F 22.5 °F 18.1 °F 54% 30.26 in 10.0 mi NNE 17.3 mph 24.2 mph N/A   Clear
6:56 PM 32.9 °F 24.1 °F 17.6 °F 53% 30.27 in 10.0 mi NNE 11.5 mph 21.9 mph N/A   Clear
7:16 PM 32.0 °F 23.6 °F 16.7 °F 53% 30.27 in 10.0 mi NNE 10.4 mph - N/A   Clear
7:36 PM 32.2 °F 23.2 °F 15.6 °F 51% 30.28 in 10.0 mi NNE 11.5 mph - N/A   Scattered Clouds
7:56 PM 31.3 °F 23.3 °F 15.8 °F 53% 30.29 in 10.0 mi NE 9.2 mph - N/A   Scattered Clouds
8:16 PM 31.1 °F 23.1 °F 16.2 °F 54% 30.29 in 10.0 mi NE 9.2 mph - N/A   Clear
8:36 PM 30.9 °F - 16.7 °F 56% 30.30 in 10.0 mi Calm Calm - N/A   Clear
8:56 PM 30.6 °F 27.1 °F 16.9 °F 57% 30.32 in 10.0 mi NW 3.5 mph - N/A   Clear
9:16 PM 29.3 °F 25.6 °F 17.1 °F 60% 30.33 in 10.0 mi North 3.5 mph - N/A   Clear
9:36 PM 28.4 °F - 17.6 °F 64% 30.33 in 10.0 mi Calm Calm - N/A   Clear
9:56 PM 27.1 °F - 18.1 °F 69% 30.33 in 10.0 mi Calm Calm - N/A   Clear
10:16 PM 28.0 °F - 19.0 °F 69% 30.34 in 10.0 mi Calm Calm - N/A   Clear
10:36 PM 27.5 °F - 19.2 °F 71% 30.34 in 10.0 mi Calm Calm - N/A   Clear
10:56 PM 25.9 °F - 19.2 °F 76% 30.34 in 10.0 mi Calm Calm - N/A   Clear
11:15 PM 23.5 °F - 18.3 °F 80% 30.34 in 10.0 mi Calm Calm - N/A   Clear
11:36 PM 23.5 °F 19.1 °F 20.3 °F 87% 30.34 in 10.0 mi SSW 3.5 mph - N/A   Clear
11:56 PM 22.1 °F 15.9 °F 18.9 °F 87% 30.34 in 10.0 mi SSW 4.6 mph - N/A   Clear